RH
7 16 25 31 29 28 22 17 12 9 7 4 4 3 4 2 2 2 2 2 1 1 1 4 9 42 97 86 32 28 26 27 29 36 36 54 89 76 76 72 52 68 51 46 42 38 36
14 22 30 27 23 19 17 21 13 4 3 4 5 6 3 2 2 2 4 5 4 3 3 6 11 59 86 77 35 45 40 34 48 49 43 65 58 72 65 60 57 44 45 42 43 46 47
23 30 27 21 15 19 10 7 8 4 4 5 4 3 5 5 6 7 11 9 7 9 13 17 32 63 93 33 50 41 43 45 60 69 60 56 63 66 58 54 43 47 53 44 47 50 48
31 29 22 14 10 6 9 8 6 7 6 4 9 7 4 4 7 11 8 6 10 25 40 52 59 80 53 54 54 48 39 42 48 80 85 77 74 86 62 51 54 50 51 61 41 47 48
31 21 12 8 6 5 5 6 10 8 4 5 5 5 5 5 10 10 5 6 18 36 41 84 82 76 61 44 40 47 50 43 47 55 83 94 77 83 65 66 75 69 68 60 49 42 44
20 11 8 6 6 6 5 9 7 5 4 5 4 5 7 6 11 10 7 7 22 36 26 66 47 63 38 44 39 25 45 49 58 88 97 97 86 79 77 77 80 76 77 66 47 35 46
11 8 7 7 6 7 11 7 5 5 4 5 6 5 6 4 13 8 8 12 17 28 36 70 68 53 43 39 55 22 31 51 67 77 92 79 92 86 65 72 70 69 68 70 49 38 46
9 8 7 8 7 10 8 5 6 6 6 5 5 4 4 4 15 13 14 45 82 70 92 54 51 39 39 41 62 24 17 46 60 82 73 89 85 63 64 71 77 81 88 82 64 52 53
8 8 8 8 12 8 5 6 6 6 5 4 4 4 4 4 10 8 14 52 82 98 90 55 62 35 28 38 62 31 27 34 64 72 75 87 65 64 78 97 100 96 99 92 88 65 56
8 8 8 11 13 7 6 6 6 6 6 5 4 4 5 6 10 9 18 48 85 98 55 62 57 45 35 36 47 38 33 35 52 73 86 89 75 83 86 89 93 90 97 98 86 94 88
7 8 10 12 8 7 7 7 7 6 5 5 5 5 8 7 9 14 18 58 92 92 36 57 53 35 44 37 37 31 33 36 60 62 66 70 73 63 64 91 79 90 95 89 98 95 96
7 8 10 9 8 8 8 8 7 6 5 5 5 5 10 8 9 10 12 69 90 50 48 65 50 51 58 50 45 48 45 41 55 66 50 46 42 70 83 54 42 81 68 53 74 97 95
8 9 9 8 8 8 8 8 7 6 5 4 4 6 13 12 14 9 9 65 41 48 52 66 57 54 63 52 50 63 57 59 85 86 72 65 52 56 79 50 51 56 72 68 84 95 76
8 9 10 8 9 8 9 8 7 6 5 4 4 5 13 11 11 9 10 39 33 66 80 59 56 62 69 60 57 67 65 65 67 84 95 95 65 52 42 53 70 65 71 93 92 89 82
8 10 10 10 9 10 10 8 8 7 6 5 4 5 11 9 11 8 15 56 89 80 68 69 66 69 71 60 74 76 75 77 76 91 89 90 79 48 42 48 44 60 60 69 95 83 90
10 10 10 9 10 13 10 10 8 8 7 6 6 10 18 13 13 11 48 56 69 66 67 67 88 71 91 84 87 87 82 62 83 83 76 86 94 54 53 49 46 61 70 83 79 95 82
11 10 10 12 14 12 11 10 9 8 8 8 7 14 25 16 15 27 80 78 72 61 60 67 77 83 85 93 92 92 85 65 84 82 72 76 96 62 60 43 64 76 91 85 87 85 93
11 11 12 14 12 12 11 10 9 10 10 8 11 27 33 19 58 81 90 86 73 72 62 63 69 76 85 84 90 92 92 78 64 75 96 88 96 99 72 60 59 64 90 94 91 85 83
12 14 16 13 14 12 11 11 14 14 14 12 31 37 40 28 90 94 84 78 76 75 69 68 73 68 71 90 95 87 81 64 63 66 88 89 94 93 68 71 71 81 71 78 91 99 98
14 19 15 14 14 13 13 14 16 12 8 21 38 73 54 66 82 86 81 82 86 62 71 69 71 72 87 96 91 88 76 62 60 60 59 76 95 95 95 93 88 90 76 65 82 95 93
21 17 15 14 14 16 17 17 8 7 11 28 57 96 93 96 88 94 88 80 91 84 72 80 87 93 96 97 84 86 72 72 59 76 70 88 98 92 91 91 88 88 86 76 91 92 95
19 17 15 16 18 19 23 14 12 15 26 29 86 84 88 100 88 90 88 92 88 78 87 83 89 90 78 97 96 95 92 80 95 80 92 94 92 94 91 84 73 93 84 82 77 86 91
19 17 16 18 20 21 12 32 76 68 45 72 78 83 90 83 92 92 95 82 78 78 69 91 85 71 81 85 84 93 98 95 87 86 86 95 99 94 97 88 91 85 100 84 84 88 92
19 17 19 20 19 10 6 33 55 88 86 68 70 83 73 95 89 84 87 74 77 70 93 87 72 75 59 69 96 91 96 96 92 74 68 89 92 95 97 95 98 94 90 86 89 92 92
18 20 20 17 5 3 5 9 38 92 87 58 88 79 86 100 88 74 84 79 77 71 83 84 72 52 73 82 96 96 94 93 80 66 71 81 93 97 96 95 99 93 89 96 98 98 96
21 21 14 3 3 4 6 13 87 97 76 59 75 84 85 78 100 100 97 88 100 100 88 75 44 57 59 94 93 100 100 92 86 72 49 69 74 91 94 95 99 98 85 97 99 98 92
22 13 3 3 4 6 13 64 91 44 47 49 68 86 56 85 81 70 91 100 88 94 97 83 74 79 64 94 97 100 100 95 98 99 100 90 91 96 99 99 94 90 91 98 94 90 100
12 3 3 3 6 14 43 35 41 46 52 51 60 72 42 67 82 73 56 48 50 74 100 56 81 75 86 95 98 99 100 100 96 100 100 100 100 100 97 95 95 85 81 82 89 96 100
3 3 3 5 17 25 23 37 36 28 33 56 58 59 42 31 71 73 53 43 47 60 84 81 100 98 99 99 99 97 98 94 98 81 87 86 95 100 86 87 88 91 83 90 84 87 98
Wind_Speed
19 21 20 18 19 20 22 24 26 27 28 27 27 29 29 29 29 27 27 25 23 24 25 25 22 13 5 5 9 8 11 11 13 11 16 27 23 21 10 6 12 13 13 7 18 22 19
19 20 19 19 20 22 23 24 26 27 27 28 30 30 30 31 31 30 28 26 25 24 21 20 17 6 6 3 3 12 15 13 10 12 20 24 17 24 7 6 10 4 6 21 23 15 15
19 18 19 22 23 23 25 26 25 26 27 27 29 31 32 32 31 30 29 29 26 22 16 10 6 6 5 9 5 18 13 11 9 13 17 23 23 15 6 3 11 13 18 19 12 8 9
18 19 20 22 24 25 24 24 25 25 27 30 30 31 32 33 32 30 30 31 24 14 10 7 3 2 3 8 9 20 16 7 5 7 13 10 22 21 5 9 7 3 3 3 2 16 7
18 20 21 24 23 22 22 23 23 26 29 29 30 33 34 35 30 30 33 30 17 12 10 9 5 4 4 6 23 23 20 9 6 8 9 15 4 13 6 3 6 5 13 8 5 11 8
18 20 23 21 20 20 21 20 23 27 29 29 31 33 33 33 29 35 35 21 12 7 12 5 7 2 11 17 18 29 17 7 4 3 5 8 8 4 3 10 15 7 8 6 5 2 14
18 21 20 19 18 19 18 20 23 26 29 30 31 32 32 34 25 36 37 12 10 3 15 6 5 5 15 25 6 29 24 9 3 3 3 4 7 13 17 15 18 16 18 18 2 4 3
18 19 18 17 17 16 17 20 22 25 28 31 31 31 31 32 20 34 34 19 10 9 9 4 8 9 16 22 6 28 26 11 5 3 3 3 13 13 12 8 15 19 21 27 17 15 13
17 18 17 16 14 15 17 19 22 24 27 29 30 30 30 32 19 35 34 28 13 3 3 6 3 12 21 19 4 20 28 12 3 3 4 6 6 11 7 7 9 11 9 14 15 8 14
16 16 16 12 12 15 17 19 22 24 26 28 29 29 29 31 18 32 30 26 10 3 2 6 6 7 20 12 2 10 26 12 5 4 6 7 2 7 8 10 7 6 6 12 14 9 7
13 14 13 10 12 14 17 20 21 23 25 27 28 28 25 26 26 29 29 17 2 1 4 8 5 10 16 15 11 14 20 12 5 9 2 5 8 13 7 4 2 7 13 10 15 9 5
12 12 8 10 12 15 18 20 21 23 25 26 27 27 22 24 27 28 27 11 1 2 4 4 5 10 8 9 9 12 7 10 7 4 4 6 7 2 2 5 8 3 8 16 10 9 9
10 9 8 10 12 15 18 20 22 24 25 25 26 26 19 24 28 24 26 6 4 3 4 9 6 9 5 10 7 9 11 8 5 5 7 6 6 4 2 8 7 2 6 4 6 9 8
8 6 7 10 12 16 19 21 23 25 25 24 25 25 13 25 24 24 22 5 3 3 5 4 7 7 4 11 6 11 11 8 5 4 3 4 6 6 3 2 5 10 3 3 5 5 9
6 5 7 10 14 17 19 22 24 25 25 25 25 23 12 26 21 22 9 5 1 3 3 7 9 4 4 5 3 7 6 3 3 5 8 5 4 12 13 3 2 4 3 3 3 10 4
4 5 7 11 14 17 20 22 24 24 25 26 23 15 18 28 16 16 7 3 2 3 4 3 2 4 5 6 6 6 4 4 5 4 2 5 7 6 5 6 2 1 4 4 3 4 3
3 5 8 12 15 17 20 22 23 25 26 26 21 5 18 26 14 14 4 3 3 6 7 3 3 4 5 4 3 3 5 9 4 7 5 3 1 11 4 2 4 4 3 3 2 2 5
3 6 9 12 15 17 20 21 23 25 27 27 12 4 21 19 10 4 3 5 6 4 3 3 2 3 4 4 6 3 5 4 14 5 7 3 2 5 7 8 12 9 5 3 1 5 3
3 7 10 13 15 17 19 22 23 25 26 23 5 5 17 18 4 4 6 4 2 3 4 3 3 3 2 3 4 4 3 4 12 15 6 3 3 5 4 1 4 9 8 5 4 2 3
4 7 10 13 15 17 20 23 24 24 22 13 4 3 9 15 8 3 6 4 5 7 5 4 5 6 2 4 6 7 9 6 26 20 19 11 3 2 2 5 4 6 16 16 1 2 3
4 8 10 13 14 18 21 22 25 23 20 7 6 2 4 3 5 4 4 5 5 10 4 7 4 5 7 3 8 1 3 16 8 11 9 6 3 8 13 16 21 15 14 16 17 10 3
5 7 10 12 15 19 20 23 24 25 19 18 6 4 3 4 6 5 8 5 10 9 3 7 9 12 9 3 5 10 15 10 4 8 8 5 3 5 6 16 21 17 18 10 14 12 9
4 7 10 13 15 17 20 18 17 20 20 10 7 3 4 13 3 3 4 7 8 10 8 9 7 7 6 5 21 26 17 19 7 5 7 6 3 2 4 11 3 7 12 10 9 13 4
4 6 9 12 15 17 17 14 12 12 12 13 6 8 6 2 3 4 8 13 10 11 4 11 12 5 9 32 5 19 22 16 13 12 15 5 3 3 3 2 4 3 5 8 12 9 9
3 6 10 13 15 14 15 14 11 10 8 11 11 7 6 3 6 6 13 10 12 19 7 5 12 22 24 12 3 3 2 1 6 8 14 9 2 4 2 3 3 3 4 3 4 4 6
3 7 11 12 12 13 12 11 10 7 6 6 12 9 7 12 7 7 5 8 3 5 7 4 22 16 24 3 4 4 4 5 6 14 13 11 9 4 3 3 2 1 8 5 1 1 9
5 8 9 10 11 11 9 10 7 9 7 6 11 10 9 13 9 8 6 3 7 5 3 7 17 16 21 4 4 4 2 1 4 5 8 7 5 6 5 3 3 2 12 2 2 2 8
6 7 7 9 9 8 8 9 9 10 10 9 13 10 9 12 12 12 13 10 6 5 1 10 5 9 8 6 3 3 3 1 4 1 2 1 2 2 3 4 2 7 1 3 2 5 7
4 5 7 7 6 7 9 10 11 10 9 7 20 16 13 18 11 12 15 15 14 9 5 4 1 3 3 3 3 2 3 3 1 2 3 3 4 3 5 4 2 1 2 2 4 9 9
Wind_Direction
355 352 353 353 350 350 350 349 347 346 344 342 342 343 342 338 335 333 333 326 315 308 305 304 304 303 279 269 258 270 286 295 272 251 210 195 185 198 200 203 220 241 250 256 246 240 242
354 353 350 348 350 350 351 349 349 347 346 348 352 352 351 348 345 347 345 336 326 316 309 298 297 261 235 266 325 330 319 299 275 244 219 206 206 210 228 215 209 296 252 254 248 248 242
351 351 349 348 351 354 351 351 351 352 354 359 1 359 358 354 352 356 353 342 333 325 330 328 301 226 246 286 350 355 341 329 279 245 229 224 220 192 237 272 275 268 273 272 248 219 240
348 348 350 352 354 354 355 354 356 2 8 8 8 5 0 357 356 2 354 348 343 356 12 13 17 181 253 358 348 346 336 324 267 258 246 249 237 231 247 285 334 294 246 234 254 196 204
348 351 352 355 354 355 356 359 9 15 13 11 9 5 3 2 357 355 357 351 350 15 18 32 34 339 8 13 13 13 359 319 297 254 245 224 230 227 196 183 289 197 257 241 295 185 178
351 355 356 356 356 357 1 14 22 19 15 12 10 6 4 1 358 355 1 350 343 21 11 57 360 340 24 347 18 12 9 342 333 273 212 211 226 209 177 208 226 200 242 232 220 274 203
354 354 356 357 357 2 19 28 23 18 14 11 8 7 4 2 2 1 359 10 3 293 25 31 21 47 346 353 4 15 14 356 340 225 227 230 231 236 248 236 254 277 272 268 180 309 248
355 354 358 358 0 18 28 26 21 15 11 9 6 4 4 2 3 5 9 40 16 313 321 39 63 29 8 356 337 13 16 22 358 301 271 273 256 264 257 260 249 248 256 263 274 249 256
356 357 359 1 13 28 29 22 16 12 7 4 3 1 360 1 359 1 7 9 351 266 259 307 19 19 5 339 8 4 10 342 285 262 259 248 286 319 320 331 299 275 258 268 256 265 255
357 359 0 10 27 30 24 18 12 8 3 0 358 356 356 360 360 356 1 348 347 181 34 357 359 21 354 355 76 359 6 347 316 306 304 261 336 17 340 317 4 293 10 317 271 244 248
357 1 10 27 32 27 19 13 7 2 0 357 354 351 351 357 358 356 346 347 358 77 333 349 2 3 4 40 298 355 356 347 309 299 322 282 339 325 332 355 281 273 315 316 288 233 234
357 4 21 34 29 22 14 9 3 0 357 355 351 347 348 355 356 350 346 349 63 42 277 356 24 349 1 1 345 326 330 359 306 314 11 287 293 352 217 309 303 291 316 302 234 236 234
358 8 29 31 22 14 9 4 0 358 355 354 351 347 352 357 354 348 340 335 22 97 341 358 342 338 337 347 342 12 338 353 9 355 342 316 329 322 201 339 327 346 324 316 241 217 246
357 18 29 23 14 9 5 0 358 356 355 356 354 346 360 357 353 347 342 38 48 35 2 351 331 332 39 8 345 340 344 347 7 45 298 338 331 341 2 264 259 306 232 278 295 333 314
6 39 26 16 10 4 1 358 356 356 359 357 354 345 13 358 356 354 351 50 334 9 332 325 319 359 325 6 334 349 320 291 2 40 6 316 269 312 314 279 187 323 307 210 235 248 256
35 32 19 10 4 1 359 358 356 359 0 357 354 345 15 359 2 6 59 92 21 30 338 7 333 21 317 324 344 12 317 286 340 38 43 279 295 277 308 313 126 110 328 11 350 299 225
31 23 9 4 2 360 359 1 358 -0 0 359 358 3 1 359 17 45 71 13 341 337 8 331 298 301 272 300 304 289 271 291 21 330 313 287 252 297 314 308 332 359 9 351 262 266 347
21 9 3 0 2 2 2 3 0 0 1 4 358 38 1 13 47 29 36 336 330 309 331 311 258 245 241 320 295 266 247 226 345 358 331 305 224 277 273 334 77 63 17 20 92 312 2
14 2 1 5 4 6 4 2 4 2 4 5 18 15 31 36 65 7 335 329 289 316 315 321 277 245 269 263 296 229 269 297 11 343 306 272 225 291 315 135 100 59 16 326 265 286 58
11 2 3 6 11 7 4 0 1 2 3 15 16 36 36 56 71 100 18 334 313 309 276 255 266 271 280 249 217 277 292 316 336 307 305 346 335 207 295 358 33 52 29 16 11 54 99
25 10 7 13 11 4 1 358 356 9 15 36 51 75 27 3 5 8 7 351 312 352 309 320 296 281 293 309 316 220 321 325 325 356 353 311 252 93 81 77 77 68 50 39 54 15 50
36 20 17 15 6 360 358 0 360 6 26 54 82 48 41 43 2 20 7 333 11 341 279 333 353 335 334 287 353 318 327 333 11 315 340 334 271 133 80 98 88 65 39 46 38 21 67
33 19 15 8 359 356 359 357 11 12 18 66 80 94 120 15 18 50 19 330 344 359 314 24 19 350 342 1 318 299 281 85 65 12 332 334 323 318 155 182 307 36 6 56 73 38 21
32 16 7 358 355 353 352 355 4 21 22 30 84 110 82 17 44 44 352 353 337 348 275 303 8 38 302 323 5 79 101 109 81 58 29 328 358 13 84 182 35 124 38 78 94 51 32
22 6 357 352 351 352 355 2 22 52 21 23 90 100 121 88 341 358 354 357 333 338 337 315 352 333 332 319 28 51 242 295 51 45 27 30 355 61 105 55 134 165 16 348 3 58 27
5 353 352 353 354 359 6 16 47 55 31 34 95 98 112 125 7 321 322 358 340 323 334 327 337 8 3 52 52 35 36 338 335 342 14 14 23 84 36 94 118 351 338 322 341 273 13
349 349 357 358 0 9 25 54 65 48 47 74 95 101 111 102 33 35 37 332 338 320 275 305 338 350 7 14 54 41 24 199 20 8 336 349 359 44 16 92 299 281 315 50 86 245 333
345 1 4 3 12 36 60 69 63 68 71 82 100 100 117 102 73 54 48 37 9 6 88 323 3 7 6 40 53 8 55 343 73 265 326 140 55 340 345 52 346 354 352 136 235 312 315
7 12 9 18 51 64 77 80 80 67 73 85 105 106 109 92 104 68 41 34 23 359 320 351 87 2 20 79 38 64 36 28 164 342 12 18 169 211 166 222 247 257 165 183 305 309 306